Location: Fernhill
(41.0167°S, 175.6333°E)
Time: 11:12:30
(UTC+00:00)

Cosmos 540 Rocket - Pass Details

Date: 08 November 2025
Orbit: 735 x 747 km, 74.1° (Epoch: 10 December)

Event Time Altitude Azimuth Distance (km) Brightness Sun altitude
Exits shadow 09:38:12 53° 87° (E) 911 3.6 -23.4°
Drops below altitude 10° 09:42:58 10° 152° (SSE) 2,273 6.2 -24.0°
Sets 09:45:22 0° 156° (SSE) 3,203 7.1 -24.3°
